K5WNG Weather Reports


Display with metric or nautical units.
time (UTC)temp
F
wind
direction
speed
MPH
gust
MPH
rain 1hr
in
rain 24hr
in
rain mn
in
humidity
%
barometer
mb
20260509234521 92 126 0.0 2.0 0.00 0.00 0.00 47 1008.3
20260509234018 92 123 0.0 2.0 0.00 0.00 0.00 47 1008.3
20260509233518 93 134 0.0 2.0 0.00 0.00 0.00 46 1008.2
20260509233021 92 121 0.0 1.0 0.00 0.00 0.00 46 1008.2
20260509232521 92 98 1.0 2.0 0.00 0.00 0.00 46 1008.3
20260509232018 92 123 0.0 3.0 0.00 0.00 0.00 45 1008.2
20260509231518 93 106 1.0 2.0 0.00 0.00 0.00 45 1008.2
20260509231018 93 106 0.0 3.0 0.00 0.00 0.00 44 1008.2
20260509230515 93 119 0.0 2.0 0.00 0.00 0.00 44 1008.2
20260509230015 93 108 0.0 1.0 0.00 0.00 0.00 44 1008.2
20260509225518 93 97 1.0 2.0 0.00 0.00 0.00 44 1008.3
20260509225019 93 104 1.0 2.0 0.00 0.00 0.00 44 1008.3
20260509224516 93 131 1.0 3.0 0.00 0.00 0.00 44 1008.3
20260509224020 94 147 0.0 2.0 0.00 0.00 0.00 43 1008.3
20260509223518 94 131 0.0 2.0 0.00 0.00 0.00 43 1008.3
20260509223016 93 114 1.0 2.0 0.00 0.00 0.00 42 1008.3
20260509222515 93 117 0.0 1.0 0.00 0.00 0.00 42 1008.2
20260509222016 93 123 0.0 2.0 0.00 0.00 0.00 42 1008.2
20260509221516 93 117 0.0 3.0 0.00 0.00 0.00 42 1008.2
20260509221016 92 115 1.0 3.0 0.00 0.00 0.00 42 1008.2
20260509220519 93 124 1.0 3.0 0.00 0.00 0.00 41 1008.3
20260509220016 93 121 1.0 2.0 0.00 0.00 0.00 41 1008.3
20260509215519 93 134 1.0 3.0 0.00 0.00 0.00 41 1008.3
20260509215017 94 106 0.0 2.0 0.00 0.00 0.00 41 1008.3
20260509214516 94 113 1.0 2.0 0.00 0.00 0.00 42 1008.4
20260509214017 94 112 1.0 2.0 0.00 0.00 0.00 42 1008.3
20260509213520 94 126 1.0 2.0 0.00 0.00 0.00 42 1008.4
20260509213017 94 98 1.0 4.0 0.00 0.00 0.00 42 1008.5
20260509212517 94 117 1.0 2.0 0.00 0.00 0.00 42 1008.5
20260509212020 94 85 0.0 2.0 0.00 0.00 0.00 43 1008.6
20260509211517 93 101 1.0 2.0 0.00 0.00 0.00 44 1008.7
20260509211020 93 118 0.0 2.0 0.00 0.00 0.00 44 1008.7
20260509210517 93 31 1.0 3.0 0.00 0.00 0.00 41 1008.8
20260509210017 93 37 1.0 3.0 0.00 0.00 0.00 41 1008.9
20260509205517 93 99 1.0 3.0 0.00 0.00 0.00 42 1008.9
20260509205017 92 114 1.0 2.0 0.00 0.00 0.00 43 1009.0
20260509204517 92 94 0.0 2.0 0.00 0.00 0.00 42 1009.0
20260509204018 91 148 0.0 2.0 0.00 0.00 0.00 41 1009.1
20260509203518 91 145 1.0 2.0 0.00 0.00 0.00 42 1009.2
20260509203021 90 81 1.0 2.0 0.00 0.00 0.00 43 1009.2
20260509202518 89 103 0.0 2.0 0.00 0.00 0.00 44 1009.2
20260509202020 89 113 1.0 3.0 0.00 0.00 0.00 45 1009.4
20260509201521 88 130 1.0 2.0 0.00 0.00 0.00 45 1009.5
20260509201021 87 107 1.0 3.0 0.00 0.00 0.00 47 1009.8
20260509200523 86 118 1.0 2.0 0.00 0.00 0.00 47 1009.9
20260509200019 86 121 1.0 4.0 0.00 0.00 0.00 45 1010.0
20260509195515 86 147 1.0 4.0 0.00 0.00 0.00 45 1010.1
20260509195023 86 120 1.0 3.0 0.00 0.00 0.00 47 1010.0
20260509194515 88 134 1.0 3.0 0.00 0.00 0.00 46 1010.0
20260509194018 90 106 1.0 4.0 0.00 0.00 0.00 47 1010.0
20260509193515 92 102 0.0 2.0 0.00 0.00 0.00 48 1009.9
20260509193018 93 90 1.0 2.0 0.00 0.00 0.00 49 1009.7
20260509192518 93 352 1.0 5.0 0.00 0.00 0.00 48 1009.6
20260509192017 93 335 1.0 4.0 0.00 0.00 0.00 48 1009.7
20260509191516 93 32 1.0 4.0 0.00 0.00 0.00 50 1009.6
20260509191016 93 320 1.0 6.0 0.00 0.00 0.00 49 1009.7
20260509190516 92 57 1.0 3.0 0.00 0.00 0.00 49 1009.7
20260509190019 92 359 2.0 5.0 0.00 0.00 0.00 48 1009.7
20260509185516 92 269 0.0 4.0 0.00 0.00 0.00 50 1009.8
20260509185020 92 323 1.0 4.0 0.00 0.00 0.00 51 1009.9
20260509184516 92 321 1.0 4.0 0.00 0.00 0.00 50 1010.0
20260509184016 92 295 1.0 5.0 0.00 0.00 0.00 52 1010.1
20260509183519 92 113 1.0 3.0 0.00 0.00 0.00 52 1010.2
20260509183016 91 59 1.0 4.0 0.00 0.00 0.00 52 1010.3
20260509182519 91 7 1.0 4.0 0.00 0.00 0.00 53 1010.3
20260509182016 90 38 1.0 5.0 0.00 0.00 0.00 56 1010.4
20260509181517 89 305 1.0 3.0 0.00 0.00 0.00 58 1010.5
20260509181021 89 333 1.0 5.0 0.00 0.00 0.00 60 1010.6
20260509180520 89 54 1.0 4.0 0.00 0.00 0.00 61 1010.5
20260509180017 88 50 1.0 3.0 0.00 0.00 0.00 61 1010.6
20260509175520 88 253 1.0 3.0 0.00 0.00 0.00 61 1010.6
20260509175016 88 278 1.0 4.0 0.00 0.00 0.00 61 1010.6
20260509174517 89 302 1.0 4.0 0.00 0.00 0.00 62 1010.6
20260509174017 89 293 0.0 4.0 0.00 0.00 0.00 61 1010.7
20260509173520 89 55 1.0 4.0 0.00 0.00 0.00 62 1010.9
20260509173018 89 17 2.0 5.0 0.00 0.00 0.00 63 1011.1
20260509172518 88 47 1.0 6.0 0.00 0.00 0.00 64 1011.2
20260509172018 88 155 0.0 2.0 0.00 0.00 0.00 65 1011.2
20260509171517 88 25 1.0 5.0 0.00 0.00 0.00 65 1011.2
20260509171017 87 329 1.0 4.0 0.00 0.00 0.00 66 1011.2
20260509170518 87 38 1.0 4.0 0.00 0.00 0.00 67 1011.3
20260509170018 86 353 1.0 4.0 0.00 0.00 0.00 67 1011.2
20260509165522 86 264 1.0 6.0 0.00 0.00 0.00 68 1011.2
20260509165022 86 264 1.0 4.0 0.00 0.00 0.00 69 1011.2
20260509164521 86 327 2.0 5.0 0.00 0.00 0.00 69 1011.2
20260509164015 85 281 1.0 6.0 0.00 0.00 0.00 69 1011.2
20260509163518 85 255 1.0 4.0 0.00 0.00 0.00 71 1011.2
20260509163015 84 272 1.0 5.0 0.00 0.00 0.00 71 1011.2
20260509162518 84 281 2.0 5.0 0.00 0.00 0.00 71 1011.2
20260509162018 84 242 1.0 3.0 0.00 0.00 0.00 73 1011.2
20260509161518 84 247 1.0 5.0 0.00 0.00 0.00 73 1011.2
20260509161015 83 273 1.0 3.0 0.00 0.00 0.00 75 1011.3
20260509160516 83 249 1.0 5.0 0.00 0.00 0.00 76 1011.3
20260509160018 82 263 1.0 4.0 0.00 0.00 0.00 77 1011.2
20260509155518 82 271 1.0 5.0 0.00 0.00 0.00 77 1011.3
20260509155019 81 120 1.0 3.0 0.00 0.00 0.00 78 1011.4
20260509154516 80 110 1.0 3.0 0.00 0.00 0.00 80 1011.5
20260509154019 79 149 1.0 2.0 0.00 0.00 0.00 83 1011.5
20260509153516 78 139 1.0 3.0 0.00 0.00 0.00 84 1011.4
20260509153019 78 207 1.0 5.0 0.00 0.00 0.00 84 1011.2
20260509152519 78 155 1.0 3.0 0.00 0.00 0.00 85 1011.2
20260509152016 78 225 1.0 5.0 0.00 0.00 0.00 86 1011.1
20260509151519 78 178 0.0 2.0 0.00 0.00 0.00 86 1011.0
20260509151016 77 221 0.0 3.0 0.00 0.00 0.00 86 1011.0
20260509150519 77 178 0.0 1.0 0.00 0.00 0.00 87 1011.0
20260509150019 77 192 1.0 2.0 0.00 0.00 0.00 87 1011.1
20260509145516 77 235 1.0 5.0 0.00 0.00 0.00 87 1011.1
20260509145016 77 195 1.0 5.0 0.00 0.00 0.00 86 1011.0
20260509144517 77 241 1.0 4.0 0.00 0.00 0.00 87 1010.8
20260509144021 77 147 1.0 3.0 0.00 0.00 0.00 87 1010.9
20260509143516 77 212 1.0 3.0 0.00 0.00 0.00 87 1010.9
20260509143021 77 167 0.0 3.0 0.00 0.00 0.00 88 1010.9
20260509142517 77 241 1.0 6.0 0.00 0.00 0.00 88 1010.7
20260509142020 77 183 1.0 3.0 0.00 0.00 0.00 89 1010.5
20260509141517 76 179 1.0 2.0 0.00 0.00 0.00 90 1010.4
20260509141017 76 164 1.0 2.0 0.00 0.00 0.00 90 1010.4
20260509140517 76 138 1.0 2.0 0.00 0.00 0.00 90 1010.3
20260509140020 75 156 0.0 2.0 0.00 0.00 0.00 91 1010.1
20260509135530 75 136 1.0 1.0 0.00 0.00 0.00 91 1010.1
20260509135026 74 153 0.0 1.0 0.00 0.00 0.00 93 1010.2
20260509134529 74 110 0.0 1.0 0.00 0.00 0.00 95 1010.4
20260509134029 73 186 0.0 3.0 0.00 0.00 0.00 97 1010.4
20260509133530 72 147 0.0 1.0 0.00 0.00 0.00 98 1010.4
20260509133027 72 161 0.0 1.0 0.00 0.00 0.00 99 1010.4
20260509132531 72 153 0.0 1.0 0.00 0.00 0.00 100 1010.6
20260509132026 72 157 0.0 1.0 0.00 0.00 0.00 100 1010.7
20260509131527 71 185 0.0 1.0 0.00 0.00 0.00 100 1010.8
20260509131030 71 197 1.0 1.0 0.00 0.00 0.00 100 1011.0
20260509130530 71 251 0.0 2.0 0.00 0.00 0.00 100 1011.2
20260509130030 71 276 0.0 1.0 0.00 0.00 0.00 100 1011.3
20260509125527 71 147 0.0 1.0 0.00 0.00 0.00 100 1011.2
20260509125030 71 138 0.0 1.0 0.00 0.00 0.00 100 1011.0
20260509124530 71 161 0.0 0.0 0.00 0.00 0.00 100 1011.0
20260509124027 71 194 0.0 1.0 0.00 0.00 0.00 100 1010.8
20260509123530 71 239 0.0 1.0 0.00 0.00 0.00 100 1010.7
20260509123031 71 0.0 0.0 0.00 0.00 0.00 100 1010.7
20260509122530 71 192 0.0 1.0 0.00 0.00 0.00 100 1010.6
20260509122031 70 197 1.0 1.0 0.00 0.00 0.00 100 1010.7
20260509121528 70 215 0.0 1.0 0.00 0.00 0.00 100 1010.7
20260509121028 70 111 0.0 1.0 0.00 0.00 0.00 100 1010.5
20260509120528 71 201 0.0 1.0 0.00 0.00 0.00 100 1010.4
20260509120028 71 0.0 0.0 0.00 0.00 0.00 100 1010.4
20260509115528 71 185 0.0 0.0 0.00 0.00 0.00 100 1010.5
20260509115028 71 0.0 0.0 0.00 0.00 0.00 100 1010.8
20260509114531 71 231 0.0 1.0 0.00 0.00 0.00 100 1011.0
20260509114031 71 41 0.0 1.0 0.00 0.00 0.00 100 1011.1
20260509113528 71 135 0.0 1.0 0.00 0.00 0.00 100 1011.3
20260509113031 71 35 0.0 1.0 0.00 0.00 0.00 100 1011.5
20260509112529 71 39 0.0 1.0 0.00 0.00 0.00 100 1011.6
20260509112031 71 288 1.0 2.0 0.00 0.00 0.00 100 1011.7
20260509111521 71 232 1.0 2.0 0.00 0.00 0.00 100 1011.7
20260509111021 71 247 0.0 3.0 0.00 0.00 0.00 100 1011.7
20260509110520 71 15 0.0 3.0 0.00 0.00 0.00 100 1011.8
20260509110020 71 157 0.0 1.0 0.00 0.00 0.00 100 1011.8
20260509105517 71 149 0.0 0.0 0.00 0.00 0.00 100 1011.8
20260509105017 71 161 0.0 1.0 0.00 0.00 0.00 100 1011.8
20260509104517 71 65 0.0 2.0 0.00 0.00 0.00 100 1011.8
20260509104017 71 79 0.0 1.0 0.00 0.00 0.00 100 1011.8
20260509103517 71 172 0.0 0.0 0.00 0.00 0.00 100 1011.8
20260509103021 71 233 0.0 0.0 0.00 0.00 0.00 100 1011.9
20260509102522 71 178 0.0 0.0 0.00 0.00 0.00 100 1011.9
20260509102021 71 186 0.0 0.0 0.00 0.00 0.00 100 1011.8
20260509101521 71 351 0.0 2.0 0.00 0.00 0.00 100 1011.7
20260509101022 71 69 0.0 2.0 0.00 0.00 0.00 100 1011.5
20260509100518 71 59 0.0 2.0 0.00 0.00 0.00 100 1011.3
20260509100021 71 36 0.0 3.0 0.00 0.00 0.00 99 1011.0
20260509095518 71 69 0.0 1.0 0.00 0.00 0.00 99 1010.9
20260509095021 71 62 0.0 2.0 0.00 0.00 0.00 99 1010.6
20260509094521 71 107 0.0 1.0 0.00 0.00 0.00 99 1010.5
20260509094018 71 173 0.0 1.0 0.00 0.00 0.00 99 1010.4
20260509093518 71 154 0.0 1.0 0.00 0.00 0.00 99 1010.4
20260509093020 71 183 0.0 0.0 0.00 0.00 0.00 99 1010.3
20260509092515 71 177 0.0 1.0 0.00 0.00 0.00 99 1010.2
20260509092015 71 192 0.0 1.0 0.00 0.00 0.00 99 1010.2
20260509091518 71 129 0.0 1.0 0.00 0.00 0.00 99 1010.2
20260509091015 71 124 0.0 1.0 0.00 0.00 0.00 99 1010.3
20260509090516 71 202 0.0 1.0 0.00 0.00 0.00 99 1010.3
20260509090019 71 140 0.0 1.0 0.00 0.00 0.00 99 1010.3
20260509085516 71 164 0.0 0.0 0.00 0.00 0.00 98 1010.3
20260509085016 71 157 0.0 1.0 0.00 0.00 0.00 98 1010.4
20260509084519 71 132 0.0 1.0 0.00 0.00 0.00 98 1010.4
20260509084019 71 180 0.0 1.0 0.00 0.00 0.00 98 1010.5
20260509083517 71 124 0.0 1.0 0.00 0.00 0.00 98 1010.6
20260509083016 71 136 0.0 1.0 0.00 0.00 0.00 98 1010.7
20260509082516 71 177 0.0 1.0 0.00 0.00 0.00 98 1010.8
20260509082016 71 147 0.0 1.0 0.00 0.00 0.00 98 1010.8
20260509081516 72 65 0.0 1.0 0.00 0.00 0.00 97 1010.9
20260509081019 72 21 0.0 1.0 0.00 0.00 0.00 97 1010.8
20260509080516 72 137 0.0 1.0 0.00 0.00 0.00 97 1010.7
20260509080021 72 183 0.0 0.0 0.00 0.00 0.00 97 1010.7
20260509075517 72 172 0.0 0.0 0.00 0.00 0.00 97 1010.7
20260509075020 72 161 0.0 1.0 0.00 0.00 0.00 96 1010.8
20260509074517 72 147 0.0 1.0 0.00 0.00 0.00 96 1010.8
20260509074017 72 223 0.0 1.0 0.00 0.00 0.00 96 1010.8
20260509073520 72 166 0.0 1.0 0.00 0.00 0.00 96 1010.9
20260509073017 72 175 0.0 1.0 0.00 0.00 0.00 96 1010.9
20260509072517 72 154 0.0 1.0 0.00 0.00 0.00 95 1011.0
20260509072017 72 188 0.0 0.0 0.00 0.00 0.00 95 1011.1
20260509071517 72 120 0.0 1.0 0.00 0.00 0.00 95 1011.1
20260509071020 72 185 0.0 0.0 0.00 0.00 0.00 95 1011.2
20260509070520 72 138 0.0 1.0 0.00 0.00 0.00 95 1011.1
20260509070017 72 255 0.0 1.0 0.00 0.00 0.00 95 1011.1
20260509065517 72 150 0.0 2.0 0.00 0.00 0.00 94 1011.1
20260509065022 72 155 0.0 1.0 0.00 0.00 0.00 94 1010.8
20260509064521 72 158 0.0 1.0 0.00 0.00 0.00 94 1010.6
20260509064018 73 169 0.0 1.0 0.00 0.00 0.00 94 1010.7
20260509063518 73 180 0.0 1.0 0.00 0.00 0.00 94 1010.8
20260509063018 73 91 0.0 2.0 0.00 0.00 0.00 93 1010.9
20260509062518 73 151 0.0 2.0 0.00 0.00 0.00 93 1010.9
20260509062015 73 157 0.0 1.0 0.00 0.00 0.00 93 1010.8
20260509061515 73 148 0.0 1.0 0.00 0.00 0.00 93 1010.6
20260509061015 73 157 0.0 2.0 0.00 0.00 0.00 93 1010.5
20260509060518 73 147 0.0 1.0 0.00 0.00 0.00 93 1010.3
20260509060018 73 155 0.0 2.0 0.00 0.00 0.00 92 1010.2
20260509055521 73 146 0.0 3.0 0.00 0.00 0.00 92 1010.3
20260509055018 73 140 1.0 2.0 0.00 0.00 0.00 92 1010.5
20260509054516 73 162 1.0 2.0 0.00 0.00 0.00 92 1010.5
20260509054016 73 156 1.0 3.0 0.00 0.00 0.00 92 1010.3
20260509053516 73 179 0.0 2.0 0.00 0.00 0.00 92 1010.1
20260509053016 73 171 1.0 2.0 0.00 0.00 0.00 92 1009.9
20260509052516 73 169 0.0 2.0 0.00 0.00 0.00 91 1009.8
20260509052019 73 201 1.0 3.0 0.00 0.00 0.00 91 1009.7
20260509051516 73 149 1.0 3.0 0.00 0.00 0.00 91 1009.6
20260509051016 73 147 1.0 2.0 0.00 0.00 0.00 91 1009.7
20260509050516 73 155 0.0 1.0 0.00 0.00 0.00 90 1009.7
20260509050017 74 144 0.0 2.0 0.00 0.00 0.00 90 1009.6
20260509045516 74 157 0.0 2.0 0.00 0.00 0.00 90 1009.7
20260509045017 74 173 1.0 3.0 0.00 0.00 0.00 90 1009.8
20260509044517 73 156 1.0 2.0 0.00 0.00 0.00 90 1009.8
20260509044020 73 147 1.0 1.0 0.00 0.00 0.00 90 1009.9
20260509043517 73 144 1.0 2.0 0.00 0.00 0.00 90 1009.9
20260509043021 73 167 0.0 1.0 0.00 0.00 0.00 90 1010.0
20260509042518 73 179 0.0 1.0 0.00 0.00 0.00 90 1010.1
20260509042020 73 144 0.0 2.0 0.00 0.00 0.00 90 1010.2
20260509041518 73 151 1.0 2.0 0.00 0.00 0.00 90 1010.2
20260509041017 73 159 0.0 2.0 0.00 0.00 0.00 90 1010.3
20260509040517 73 166 0.0 1.0 0.00 0.00 0.00 90 1010.3
20260509040021 73 144 0.0 2.0 0.00 0.00 0.00 90 1010.2
20260509035520 73 140 0.0 2.0 0.00 0.00 0.00 90 1010.0
20260509035018 73 152 0.0 1.0 0.00 0.00 0.00 90 1010.0
20260509034521 73 165 0.0 2.0 0.00 0.00 0.00 90 1009.9
20260509034021 72 163 0.0 1.0 0.00 0.00 0.00 90 1009.9
20260509033518 72 157 0.0 2.0 0.00 0.00 0.00 90 1009.9
20260509033015 72 149 0.0 1.0 0.00 0.00 0.00 90 1009.8
20260509032521 72 177 0.0 1.0 0.00 0.00 0.00 90 1009.9
20260509032018 72 176 0.0 1.0 0.00 0.00 0.00 90 1009.9
20260509031515 73 160 0.0 1.0 0.00 0.00 0.00 90 1009.9
20260509031018 73 166 0.0 1.0 0.00 0.00 0.00 89 1009.9
20260509030515 73 193 0.0 1.0 0.00 0.00 0.00 89 1009.9
20260509030018 73 159 0.0 2.0 0.00 0.00 0.00 88 1009.8
20260509025516 73 177 0.0 1.0 0.00 0.00 0.00 88 1009.8
20260509025015 73 139 0.0 1.0 0.00 0.00 0.00 88 1009.7
20260509024519 73 182 0.0 1.0 0.00 0.00 0.00 87 1009.6
20260509024018 73 101 0.0 3.0 0.00 0.00 0.00 87 1009.5
20260509023516 74 176 0.0 2.0 0.00 0.00 0.00 87 1009.5
20260509023017 74 161 0.0 2.0 0.00 0.00 0.00 87 1009.4
20260509022516 74 163 0.0 2.0 0.00 0.00 0.00 86 1009.4
20260509022019 74 167 0.0 2.0 0.00 0.00 0.00 86 1009.3
20260509021520 74 152 0.0 2.0 0.00 0.00 0.00 85 1009.2
20260509021016 75 154 0.0 1.0 0.00 0.00 0.00 85 1009.1
20260509020520 75 142 0.0 2.0 0.00 0.00 0.00 84 1009.1
20260509020016 75 147 0.0 1.0 0.00 0.00 0.00 84 1009.0
20260509015516 75 145 1.0 2.0 0.00 0.00 0.00 84 1009.0
20260509015016 76 142 1.0 3.0 0.00 0.00 0.00 83 1008.9
20260509014520 76 149 1.0 2.0 0.00 0.00 0.00 83 1008.9
20260509014021 76 154 0.0 2.0 0.00 0.00 0.00 82 1008.8
20260509013516 76 144 0.0 2.0 0.00 0.00 0.00 82 1008.8
20260509013025 76 153 0.0 1.0 0.00 0.00 0.00 82 1008.8
20260509012517 76 161 0.0 1.0 0.00 0.00 0.00 81 1008.9
20260509012020 77 178 0.0 2.0 0.00 0.00 0.00 81 1008.9
20260509011517 77 151 1.0 2.0 0.00 0.00 0.00 81 1008.8
20260509011020 77 166 0.0 2.0 0.00 0.00 0.00 80 1008.8
20260509010520 77 139 0.0 3.0 0.00 0.00 0.00 80 1008.8
20260509010017 77 147 0.0 1.0 0.00 0.00 0.00 80 1008.8
20260509005517 77 149 0.0 2.0 0.00 0.00 0.00 79 1008.8
20260509005020 77 152 0.0 2.0 0.00 0.00 0.00 79 1008.8
20260509004521 77 157 0.0 1.0 0.00 0.00 0.00 78 1008.8
20260509004017 77 126 0.0 2.0 0.00 0.00 0.00 78 1008.7
20260509003520 78 143 1.0 2.0 0.00 0.00 0.00 78 1008.8
20260509003017 78 128 0.0 2.0 0.00 0.00 0.00 78 1008.8
20260509002521 78 132 0.0 2.0 0.00 0.00 0.00 77 1008.8
20260509002018 78 161 0.0 2.0 0.00 0.00 0.00 77 1008.8
20260509001522 78 173 0.0 2.0 0.00 0.00 0.00 77 1008.7
20260509001022 78 185 0.0 1.0 0.00 0.00 0.00 77 1008.7
20260509000521 78 146 0.0 2.0 0.00 0.00 0.00 77 1008.7
20260509000018 78 137 0.0 2.0 0.00 0.00 0.00 76 1008.7
20260508235518 79 121 0.0 2.0 0.00 0.00 0.00 76 1008.8
20260508235021 79 118 0.0 1.0 0.00 0.00 0.00 76 1008.9